Regional Weather Roundup
Issued by NWS

Home | Current Version | Previous Version | Text Only | Print | Product List | Glossary On
Versions: 1 2 3 4 5 6 7 8 9 10 11 12 13 14 15 16 17 18 19 20 21 22 23 24 25 26 27 28 29 30 31 32 33 34 35 36 37 38 39 40 41 42 43 44 45 46 47 48 49 50
122
ASUS45 KABQ 220910
RWRNM
NEW MEXICO REGIONAL WEATHER ROUNDUP
NATIONAL WEATHER SERVICE ALBUQUERQUE NM
200 AM MST SUN JAN 22 2017

NOTE: "FAIR" MEANS FEW OR NO CLOUDS BELOW 12,000 FEET AGL WITH NO
       SIGNIFICANT WEATHER OR OBSTRUCTIONS TO VISION.

      THIS PRODUCT IS RELEASED AS TWO VERSIONS.  ONE VERSION NEAR
      THE TOP OF THE HOUR CONTAINING PRELIMINARY DATA FROM ALBUQUERQUE
      AND OTHER STATIONS.  A FINAL VERSION WITH ADDITIONAL DATA IS
      ISSUED ABOUT 10 MINUTES AFTER THE HOUR.

NMZ501-503-504-510>518-221000-
NORTHWEST PLATEAU/NORTHCENTRAL MOUNTAINS

CITY           SKY/WX    TMP DP  RH WIND       PRES   REMARKS
FARMINGTON     FAIR      29  24  82 W9        29.97R WCI  20
LOS ALAMOS     FAIR      29  17  62 CALM      29.88R
SANTA FE       MOCLDY    32  22  66 SE5       29.89R WCI  27
TAOS           FAIR      25  14  63 SW13      29.86R WCI  13
ANGEL FIRE     LGT SNOW  23  19  83 S3        29.82R

$$
NMZ402-403-502-505>509-221000-
WESTCENTRAL MOUNTAINS/SOUTHWEST MOUNTAINS

CITY           SKY/WX    TMP DP  RH WIND       PRES   REMARKS
GALLUP         FAIR      17  14  88 W5        30.04R WCI  10
GRANTS         FAIR      27  17  66 W18G24    30.00R WCI  14
SILVER CITY    FAIR      30  26  85 NW9       30.07S WCI  22

$$
NMZ407-409-411-412-221000-
SOUTHERN DESERTS

CITY           SKY/WX    TMP DP  RH WIND       PRES   REMARKS
DEMING         FAIR      36  29  75 W16G25    30.06S WCI  26
LAS CRUCES     FAIR      36  28  73 W15       30.05S WCI  26
HOLLOMAN AFB   FAIR      39  21  47 VRB5      30.03R
ALAMOGORDO     FAIR      36  23  60 N12       30.01R WCI  27
T OR C         FAIR      35  19  52 VRB3      30.01R

$$
NMZ519>523-221000-
CENTRAL VALLEYS/CENTRAL HIGHLANDS

CITY           SKY/WX    TMP DP  RH WIND       PRES   REMARKS
ALBUQUERQUE    MOCLDY    37  22  54 NW6       29.97R WCI  32
DOUBLE EAGLE   FAIR      29  20  69 NW7       29.95R WCI  22
MORIARTY ARPT  FAIR      32  19  59 NW26G35   29.90R WCI  18
CLINES CORNERS NOT AVBL
BELEN          FAIR      34  19  55 NW3       29.99R
SOCORRO        FAIR      35  20  53 N9G20     29.98R WCI  28

$$
NMZ524>526-539-540-221000-
SOUTHCENTRAL MOUNTAINS

CITY           SKY/WX    TMP DP  RH WIND       PRES   REMARKS
RUIDOSO        FAIR      28  16  59 W23G36    29.86R WCI  14

$$
NMZ527>531-221000-
NORTHEAST HIGHLANDS/NORTHEAST PLAINS

CITY           SKY/WX    TMP DP  RH WIND       PRES   REMARKS
LAS VEGAS      FAIR      27  14  58 NW8       29.75R WCI  19
RATON          FAIR      30  20  66 NW13      29.72R WCI  20
CLAYTON        FAIR      33  31  92 NW16      29.70R WCI  23

$$
NMZ532>537-221000-
EASTCENTRAL PLAINS

CITY           SKY/WX    TMP DP  RH WIND       PRES   REMARKS
TUCUMCARI      FAIR      36  27  69 W10       29.71R WCI  28
CANNON AFB     FAIR      37  28  68 NW15      29.70R WCI  28
CLOVIS AIRPORT FAIR      36  25  64 NW10      29.70R WCI  28

$$
NMZ028-029-538-221000-
SOUTHEAST PLAINS

CITY           SKY/WX    TMP DP  RH WIND       PRES   REMARKS
ROSWELL        FAIR      45  20  36 NW22G30   29.76R
ARTESIA        FAIR      45  21  39 NW25G37   29.79R
CARLSBAD       FAIR      43  22  43 NW12      29.81R


$$




USA.gov is the U.S. government's official web portal to all federal, state and local government web resources and services.